Libertyville, IL

1:32 PM CDT on September 27, 2016 (GMT -0500)
Chicago Executive

Weather History for KPWK - October, 2012

Change the Weather History Date:

Saturday, October 27, 2012

  Actual Average Record
Temperature  
Mean Temperature 40 °F 48 °F  
Max Temperature 47 °F 57 °F 78 °F (2014)
Min Temperature 32 °F 39 °F 28 °F (2013)
Degree Days  
Heating Degree Days 25 17  
Month to date heating degree days 346 338  
Since 1 July heating degree days 480 450  
Cooling Degree Days 0 0  
Month to date cooling degree days 3 11  
Year to date cooling degree days 1228 789  
Moisture  
Dew Point 27 °F    
Average Humidity 62    
Maximum Humidity 79    
Minimum Humidity 46    
Precipitation  
Precipitation 0.00 in 0.10 in 0.42 in (1998)
Month to date precipitation 2.86 2.65  
Year to date precipitation 19.15 28.34  
Sea Level Pressure  
Sea Level Pressure 30.32 in    
Wind  
Wind Speed 9 mph (North)    
Max Wind Speed 15 mph    
Max Gust Speed 21 mph    
Visibility 10 miles    
Events      
T = Trace of Precipitation, MM = Missing Value Source: NWS Daily Summary

Daily Weather History Graph

Daily Weather History Graph

Search for Another Location

Airport or City:

Trip Planner

Search our weather history database for the weather conditions in past years. The results will help you decide how hot, cold, wet, or windy it might be!

Date:

Astronomy

Oct. 27, 2012 Rise Set
Actual Time 7:18 AM CDT 5:51 PM CDT
Civil Twilight 6:50 AM CDT 6:20 PM CDT
Nautical Twilight 6:17 AM CDT 6:52 PM CDT
Astronomical Twilight 5:44 AM CDT 7:25 PM CDT
Moon 4:38 PM CDT 5:12 AM CDT
Length of Visible Light 11h 29m
Length of Day
10h 32m
Waxing Gibbous, 96% of the Moon is Illuminated
Oct 27
Waxing Gibbous
Oct 29
Full
Nov 6
Last Quarter
Nov 13
New
Nov 20
First Quarter

Hourly Weather History & Observations

Time (CDT) Temp. Windchill Dew Point Humidity Pressure Visibility Wind Dir Wind Speed Gust Speed Precip Events Conditions
12:52 AM 37.0 °F 31.0 °F 28.0 °F 70% 30.34 in 10.0 mi North 8.1 mph - N/A   Clear
1:52 AM 37.0 °F 29.8 °F 27.0 °F 67% 30.34 in 10.0 mi North 10.4 mph - N/A   Clear
2:52 AM 36.0 °F 28.5 °F 26.1 °F 67% 30.33 in 10.0 mi North 10.4 mph - N/A   Clear
3:52 AM 35.1 °F 30.1 °F 26.1 °F 70% 30.33 in 10.0 mi NNW 5.8 mph - N/A   Clear
4:52 AM 35.1 °F 29.3 °F 26.1 °F 70% 30.33 in 10.0 mi North 6.9 mph - N/A   Clear
5:52 AM 33.1 °F 27.7 °F 26.1 °F 75% 30.33 in 10.0 mi NNW 5.8 mph - N/A   Clear
6:52 AM 32.0 °F 24.8 °F 26.1 °F 79% 30.35 in 10.0 mi NW 8.1 mph - N/A   Clear
7:52 AM 32.0 °F 24.8 °F 26.1 °F 79% 30.35 in 10.0 mi NNW 8.1 mph - N/A   Clear
8:52 AM 37.9 °F 31.5 °F 26.1 °F 62% 30.36 in 10.0 mi North 9.2 mph - N/A   Clear
10:52 AM 43.0 °F 37.2 °F 28.0 °F 56% 30.34 in 10.0 mi NNW 10.4 mph 18.4 mph N/A   Clear
11:52 AM 45.0 °F 40.6 °F 28.0 °F 52% 30.33 in 10.0 mi NNW 8.1 mph - N/A   Clear
12:52 PM 46.0 °F 41.0 °F 28.0 °F 50% 30.32 in 10.0 mi NNW 10.4 mph - N/A   Clear
1:52 PM 46.9 °F - 27.0 °F 46% 30.30 in 10.0 mi North 11.5 mph 17.3 mph N/A   Clear
2:52 PM 45.0 °F 40.1 °F 28.9 °F 53% 30.29 in 10.0 mi ENE 9.2 mph - N/A   Clear
3:52 PM 45.0 °F 40.6 °F 28.0 °F 52% 30.30 in 10.0 mi North 8.1 mph - N/A   Clear
4:52 PM 42.1 °F 35.2 °F 26.1 °F 53% 30.29 in 10.0 mi NE 12.7 mph 20.7 mph N/A   Clear
5:52 PM 41.0 °F 38.0 °F 27.0 °F 57% 30.30 in 10.0 mi NE 4.6 mph - N/A   Clear
6:52 PM 39.9 °F 35.8 °F 26.1 °F 58% 30.32 in 10.0 mi NNE 5.8 mph - N/A   Clear
7:52 PM 39.0 °F 34.8 °F 27.0 °F 62% 30.31 in 10.0 mi North 5.8 mph - N/A   Clear
8:52 PM 37.9 °F 32.7 °F 26.1 °F 62% 30.31 in 10.0 mi NNW 6.9 mph - N/A   Scattered Clouds
9:52 PM 39.9 °F 33.9 °F 26.1 °F 58% 30.31 in 10.0 mi North 9.2 mph - N/A   Overcast
10:52 PM 39.9 °F 33.9 °F 26.1 °F 58% 30.30 in 10.0 mi North 9.2 mph - N/A   Overcast
11:52 PM 39.0 °F 33.4 °F 26.1 °F 60% 30.31 in 10.0 mi North 8.1 mph - N/A   Scattered Clouds